Ft Lauderdale, FL

1:28 AM EST on November 22, 2017 (GMT -0500)
Fort Lauderdale-Hollywood International

Weather History for KFLL - June, 2014

Change the Weather History Date:

Monday, June 2, 2014

  Actual Average Record
Temperature  
Mean Temperature 79 °F 82 °F  
Max Temperature 82 °F 88 °F 96 °F (1927)
Min Temperature 75 °F 77 °F 62 °F (1926)
Degree Days  
Heating Degree Days 0 0  
Month to date heating degree days 0 0  
Since 1 June heating degree days 0 0  
Since 1 July heating degree days 81 112  
Cooling Degree Days 14 17  
Month to date cooling degree days 31 34  
Year to date cooling degree days 1566 1452  
Since 1 June cooling degree days 31 34  
Growing Degree Days 28 (Base 50)    
Moisture  
Dew Point 73 °F    
Average Humidity 80    
Maximum Humidity 94    
Minimum Humidity 65    
Precipitation  
Precipitation 0.40 in 0.31 in 8.60 in (1930)
Month to date precipitation 0.68 0.64  
Year to date precipitation 21.28 18.13  
Snow  
Snow 0.00 in - - ()
Month to date snowfall 0.0  
Since 1 June snowfall 0.0  
Since 1 July snowfall 0.0  
Snow Depth 0.00 in    
Sea Level Pressure  
Sea Level Pressure 30.03 in    
Wind  
Wind Speed 15 mph (East)    
Max Wind Speed 23 mph    
Max Gust Speed 29 mph    
Visibility 8 miles    
Events Rain    
T = Trace of Precipitation, MM = Missing Value Source: NWS Daily Summary

Daily Weather History Graph

Daily Weather History Graph

Search for Another Location

Airport or City:

Trip Planner

Search our weather history database for the weather conditions in past years. The results will help you decide how hot, cold, wet, or windy it might be!

Date:

Astronomy

Jun. 02, 2014 Rise Set
Actual Time 6:28 AM EDT 8:09 PM EDT
Civil Twilight 6:02 AM EDT 8:34 PM EDT
Nautical Twilight 5:31 AM EDT 9:05 PM EDT
Astronomical Twilight 4:59 AM EDT 9:38 PM EDT
Moon 10:39 AM EDT (6/2) 11:54 PM EDT (6/2)
Length of Visible Light 14h 32m
Length of Day
13h 40m
Waxing Crescent, 21% of the Moon is Illuminated
Jun 2
Waxing Crescent
Jun 5
First Quarter
Jun 13
Full
Jun 19
Last Quarter
Jun 27
New

Hourly Weather History & Observations

Time (EDT) Temp. Heat Index Dew Point Humidity Pressure Visibility Wind Dir Wind Speed Gust Speed Precip Events Conditions
12:06 AM 81.0 °F 85.8 °F 73.0 °F 77% 30.04 in 9.0 mi ESE 13.8 mph - 0.00 in Rain Light Rain
12:13 AM 81.0 °F 85.8 °F 73.0 °F 77% 30.03 in 9.0 mi East 16.1 mph - 0.00 in   Mostly Cloudy
12:31 AM 81.0 °F 85.2 °F 72.0 °F 74% 30.03 in 7.0 mi ESE 21.9 mph 26.5 mph 0.00 in   Mostly Cloudy
12:36 AM 79.0 °F - 72.0 °F 79% 30.03 in 1.5 mi SE 23.0 mph 27.6 mph 0.00 in Rain Heavy Rain
12:53 AM 77.0 °F - 73.9 °F 90% 30.03 in 2.0 mi ESE 13.8 mph - 0.25 in Rain Heavy Rain
1:03 AM 78.1 °F - 75.0 °F 90% 30.03 in 3.0 mi ESE 18.4 mph 25.3 mph 0.05 in Rain Rain
1:16 AM 77.0 °F - 73.9 °F 90% 30.02 in 6.0 mi East 13.8 mph - 0.09 in Rain Light Rain
1:53 AM 78.1 °F - 75.9 °F 93% 30.01 in 10.0 mi East 6.9 mph - 0.09 in   Mostly Cloudy
2:53 AM 80.1 °F 85.4 °F 75.9 °F 87% 29.99 in 10.0 mi East 13.8 mph - N/A   Mostly Cloudy
3:53 AM 80.1 °F 84.2 °F 73.0 °F 79% 29.99 in 10.0 mi East 13.8 mph - N/A   Mostly Cloudy
4:53 AM 80.1 °F 84.2 °F 73.0 °F 79% 29.99 in 10.0 mi East 15.0 mph - N/A   Mostly Cloudy
5:53 AM 80.1 °F 84.2 °F 73.0 °F 79% 30.00 in 10.0 mi East 13.8 mph - N/A   Mostly Cloudy
6:00 AM 80.1 °F 84.2 °F 73.0 °F 79% 30.00 in 10.0 mi East 15.0 mph - N/A   Mostly Cloudy
6:14 AM 80.1 °F 84.2 °F 73.0 °F 79% 30.00 in 10.0 mi East 15.0 mph - N/A   Scattered Clouds
6:24 AM 80.1 °F 84.5 °F 73.9 °F 81% 30.01 in 8.0 mi East 16.1 mph - 0.00 in Rain Light Rain
6:38 AM 79.0 °F - 75.0 °F 88% 30.00 in 6.0 mi ENE 15.0 mph - 0.03 in Rain Heavy Rain
6:53 AM 79.0 °F - 75.0 °F 88% 30.01 in 10.0 mi East 18.4 mph 24.2 mph 0.03 in Rain Light Rain
7:53 AM 80.1 °F 85.4 °F 75.9 °F 87% 30.03 in 10.0 mi East 17.3 mph - 0.00 in   Overcast
8:53 AM 78.1 °F - 73.0 °F 84% 30.06 in 10.0 mi East 23.0 mph 27.6 mph N/A   Overcast
9:34 AM 77.0 °F - 75.0 °F 94% 30.05 in 6.0 mi ENE 16.1 mph - 0.07 in Rain Rain
9:53 AM 77.0 °F - 75.0 °F 94% 30.06 in 9.0 mi ENE 18.4 mph - 0.09 in Rain Light Rain
10:53 AM 75.9 °F - 73.9 °F 94% 30.08 in 5.0 mi East 13.8 mph 26.5 mph 0.10 in Rain Light Rain
11:06 AM 75.9 °F - 75.0 °F 97% 30.08 in 2.5 mi ENE 13.8 mph 24.2 mph 0.04 in Rain Rain
11:11 AM 75.9 °F - 75.0 °F 97% 30.08 in 4.0 mi ENE 13.8 mph - 0.04 in Rain Light Rain
11:53 AM 75.0 °F - 73.0 °F 94% 30.09 in 8.0 mi East 16.1 mph - 0.11 in Rain Light Rain
12:53 PM 77.0 °F - 73.0 °F 88% 30.08 in 10.0 mi East 16.1 mph 23.0 mph 0.01 in Rain Light Rain
1:53 PM 80.6 °F 85.4 °F 73.4 °F 79% 30.06 in 10.0 mi East 18.4 mph - N/A   Overcast
2:53 PM 82.0 °F 86.3 °F 71.1 °F 69% 30.05 in 10.0 mi East 18.4 mph - N/A   Overcast
3:53 PM 82.0 °F 85.9 °F 70.0 °F 67% 30.03 in 10.0 mi East 17.3 mph - N/A   Overcast
4:53 PM 81.0 °F 84.4 °F 70.0 °F 69% 30.03 in 10.0 mi East 16.1 mph - N/A   Overcast
5:53 PM 81.0 °F 84.1 °F 69.1 °F 67% 30.01 in 10.0 mi East 13.8 mph - N/A   Overcast
6:53 PM 81.0 °F 84.1 °F 69.1 °F 67% 30.01 in 10.0 mi East 13.8 mph - N/A   Overcast
7:53 PM 80.1 °F 82.9 °F 69.1 °F 69% 30.02 in 10.0 mi ENE 11.5 mph - N/A   Overcast
8:53 PM 80.1 °F 82.9 °F 69.1 °F 69% 30.03 in 10.0 mi East 11.5 mph - N/A   Overcast
9:53 PM 80.1 °F 82.9 °F 69.1 °F 69% 30.04 in 10.0 mi East 15.0 mph - N/A   Overcast
10:53 PM 80.1 °F 82.9 °F 69.1 °F 69% 30.06 in 10.0 mi East 15.0 mph - N/A   Overcast
11:27 PM 80.1 °F 82.7 °F 68.0 °F 67% 30.06 in 10.0 mi East 16.1 mph - N/A   Overcast
11:53 PM 80.1 °F 82.7 °F 68.0 °F 67% 30.06 in 10.0 mi East 13.8 mph - N/A   Overcast